ARABSAT-5C

Last updated on Thu Oct 30 2025 00:02:48 GMT+0000 (Coordinated Universal Time)

1 37810U 11049B 25302.26100669 .00000133 00000+0 00000+0 0 9991 2 37810 0.0540 355.1355 0005092 218.8392 297.8427 1.00272391 51725
UTC large
Height (km)
Speed (km/s)
/
Latitude / Longitude
Inclination (degrees)
Orbital Period (minutes)
Azimuth
Elevation
Range (km)
Doppler Factor

Next 0 passes for location: London (51.5072 / 0.1276)

Sorry there are no passes over London.